Location: Mohawk View
(42.7837°N, 73.7885°W)
Time: 13:03:39
(UTC+00:00)

Cosmos 1378 Rocket - Pass Details

Date: 17 June 2021
Orbit: 601 x 627 km, 82.5° (Epoch: 30 July)

Event Time Altitude Azimuth Distance (km) Brightness Sun altitude
Rises 01:23:50 0° 189° (S) 2,848 6.6 -7.8°
Reaches altitude 10° 01:26:02 10° 190° (S) 1,953 5.8 -8.1°
Maximum altitude 01:30:21 82° 277° (W) 624 3.7 -8.7°
Drops below altitude 10° 01:34:45 10° 6° (N) 1,984 6.7 -9.2°
Sets 01:37:00 0° 8° (N) 2,899 7.6 -9.5°
